SCOUT G-1 DEB

Satellite information

Favourite Embed

Satellite Type and Status

DEBRISIN ORBIT

Key statistics

Satellite SCOUT G-1 DEB at a glance.

Uptime

13872

Days in orbit

Revolutions

≈ 13.9

Per day

Orbit

SSO

Sun Synchronous Orbit

Inclination

90.3

Latest

Satellite identification and parameters

Extended collection of information and parameters for SCOUT G-1 DEB.

Object identification

Identified? True

Debris? True

Object name: SCOUT G-1 DEB

International designator: 1987-080K

Object number (NORAD): 29207

Object ID (CCSDS): 29207

Country: UNITED STATES OF AMERICA (US)

Current information (Y/N): Y

RCS size: SMALL

Orbital parameters

Period: 103.251 minutes

Inclination: 90.2889 deg

SMA: 7290.499 km

Apoapsis: 996.724 km

Periapsis: 828.005 km

RAAN: 40.0807 deg

Eccentricy: 0.01157115

Argument of periapsis: 119.8722 deg

Mean anomaly: 241.4012 deg

Mean motion: 13.94655224 rev/day

Mean motion (dot): 0.00004528 rev/day2

B* drag term: 0.0031952224 1/REarth

Two-line elements (TLE)

Creation date: Sept. 5, 2025, 10:27 a.m.

Reference frame: TEME

Reference center: EARTH

Epoch: Sept. 5, 2025, 4:21 a.m. UTC

TLE line 0: 0 SCOUT G-1 DEB

TLE line 1: 1 29207U 87080K 25248.18132312 .00004528 00000-0 31952-2 0 9996

TLE line 2: 2 29207 90.2889 40.0807 0115712 119.8722 241.4012 13.94655224933576

Live tracking on map

Real-time ground track for satellite SCOUT G-1 DEB.

In-orbit conjunctions

A list of the most updated potential collisions computed for object SCOUT G-1 DEB.

Target Orbit TCA Probability of collision Miss distance Type
COSMOS 2251 DEB LEO 2024-11-12 12:12:43 0.0001383317 244.0 (m) DEBRIS

Associated space launch

The Transit-O series of satellites that closely followed the design of Transit 5C-1 were also called “Oscars” (Oscar is the phonetic alphabet for “O”, i. e., operational). They were also called NNS (Navy Navigation Satellite) or shortened NavSat.

SCOUT G-1 DEB was lifted into orbit during the mission ‘Scout G-1 | Transit-O 27,29’, on board a Scout G-1 space rocket.

The launch took place on Sept. 16, 1987, 7:22 p.m. from Space Launch Complex 5.

For more information about the launch, click the button.

Launch to space Scout G-1 | Transit-O 27,29
Scout G-1 | Transit-O 27,29

Agency: N/A

Status: Launch Successful

Launch date: Sept. 16, 1987, 7:22 p.m. UTC

Rocket: Scout G-1

Launch pad: Space Launch Complex 5

Location: Vandenberg SFB, CA, USA

...

Latest news about this satellite

There are no fresh news available about this satellite. Check back as we update our databases every day.


Newsletter sign-up

Weekly statistics, charts and insights to help you stay on top of the space industry.